KD4EG Weather Reports


Display with metric or nautical units.
time (UTC)temp
F
wind
direction
speed
MPH
gust
MPH
rain 1hr
in
rain 24hr
in
rain mn
in
humidity
%
barometer
mb
20260508053636 48 337 1.0 1.0 0.00 0.00 0.00 77 1017.3
20260508053134 47 319 3.0 3.0 0.00 0.00 0.00 79 1017.3
20260508052631 47 344 1.0 2.0 0.00 0.00 0.00 79 1017.2
20260508052128 47 310 1.0 2.0 0.00 0.00 0.00 78 1017.0
20260508051624 48 319 0.0 1.0 0.00 0.00 0.00 78 1017.0
20260508051120 47 318 0.0 0.0 0.00 0.00 0.00 80 1016.8
20260508050616 46 335 0.0 0.0 0.00 0.00 0.00 80 1016.7
20260508050114 47 317 0.0 0.0 0.00 0.00 0.00 80 1016.5
20260508045609 47 307 0.0 0.0 0.00 0.00 0.00 79 1016.5
20260508045108 47 308 1.0 1.0 0.00 0.00 0.00 78 1016.5
20260508044604 47 316 1.0 1.0 0.00 0.00 0.00 79 1016.3
20260508044100 47 296 1.0 1.0 0.00 0.00 0.00 80 1016.6
20260508043557 47 305 0.0 1.0 0.00 0.00 0.00 82 1016.5
20260508043055 47 304 1.0 2.0 0.00 0.00 0.00 82 1016.6
20260508042551 47 330 1.0 1.0 0.00 0.00 0.00 82 1016.4
20260508042049 47 310 1.0 1.0 0.00 0.00 0.00 82 1016.4
20260508041545 47 313 0.0 1.0 0.00 0.00 0.00 82 1016.4
20260508041041 47 6 1.0 2.0 0.00 0.00 0.00 82 1016.5
20260508040538 48 295 1.0 1.0 0.00 0.00 0.00 81 1016.4
20260508040036 48 300 2.0 3.0 0.00 0.00 0.00 81 1016.3
20260508035532 48 301 0.0 1.0 0.00 0.00 0.00 81 1015.9
20260508035030 48 320 1.0 1.0 0.00 0.00 0.00 80 1016.0
20260508034527 48 310 1.0 1.0 0.00 0.00 0.00 80 1015.9
20260508034024 48 337 1.0 1.0 0.00 0.00 0.00 81 1016.2
20260508033521 48 308 0.0 0.0 0.00 0.00 0.00 81 1015.9
20260508033020 48 334 2.0 2.0 0.00 0.00 0.00 80 1016.0
20260508032516 49 321 2.0 2.0 0.00 0.00 0.00 81 1016.0
20260508032014 49 306 2.0 2.0 0.00 0.00 0.00 80 1015.8
20260508031511 49 305 2.0 2.0 0.00 0.00 0.00 80 1015.8
20260508031005 50 304 1.0 1.0 0.00 0.00 0.00 79 1015.5
20260508030503 50 292 2.0 2.0 0.00 0.00 0.00 78 1015.7
20260508030001 50 307 1.0 2.0 0.00 0.00 0.00 78 1015.7
20260508025456 50 301 2.0 2.0 0.00 0.00 0.00 78 1015.7
20260508024954 50 302 2.0 2.0 0.00 0.00 0.00 77 1015.4
20260508024449 51 299 1.0 1.0 0.00 0.00 0.00 77 1015.5
20260508023946 51 300 1.0 2.0 0.00 0.00 0.00 77 1015.6
20260508023443 51 316 0.0 1.0 0.00 0.00 0.00 75 1015.5
20260508022941 51 299 0.0 0.0 0.00 0.00 0.00 74 1015.5
20260508022436 52 292 2.0 2.0 0.00 0.00 0.00 73 1015.2
20260508021933 53 299 0.0 0.0 0.00 0.00 0.00 71 1015.1
20260508021430 53 299 2.0 2.0 0.00 0.00 0.00 69 1015.3
20260508020925 52 332 1.0 1.0 0.00 0.00 0.00 71 1015.0
20260508020424 52 323 0.0 1.0 0.00 0.00 0.00 73 1015.0
20260508015920 52 303 1.0 1.0 0.00 0.00 0.00 75 1014.9
20260508015418 52 308 1.0 1.0 0.00 0.00 0.00 75 1014.7
20260508014914 52 297 1.0 1.0 0.00 0.00 0.00 76 1014.7
20260508014411 52 295 2.0 2.0 0.00 0.00 0.00 76 1014.5
20260508013906 53 296 2.0 2.0 0.00 0.00 0.00 75 1014.6
20260508013403 53 302 0.0 0.0 0.00 0.00 0.00 74 1014.4
20260508012901 53 303 3.0 3.0 0.00 0.00 0.00 73 1014.3
20260508012357 54 304 1.0 1.0 0.00 0.00 0.00 71 1014.3
20260508011855 55 308 2.0 2.0 0.00 0.00 0.00 69 1014.4
20260508011353 55 8 1.0 1.0 0.00 0.00 0.00 67 1014.1
20260508010849 56 290 2.0 2.0 0.00 0.00 0.00 64 1014.3
20260508010347 56 10 3.0 3.0 0.00 0.00 0.00 64 1014.1
20260508005844 57 347 1.0 1.0 0.00 0.00 0.00 63 1013.8
20260508005341 57 291 3.0 5.0 0.00 0.00 0.00 60 1013.9
20260508004837 57 317 1.0 1.0 0.00 0.00 0.00 64 1013.6
20260508004333 57 302 0.0 0.0 0.00 0.00 0.00 61 1013.8
20260508003830 58 299 1.0 1.0 0.00 0.00 0.00 58 1013.8
20260508003327 58 298 1.0 1.0 0.00 0.00 0.00 60 1013.8
20260508002824 59 310 1.0 1.0 0.00 0.00 0.00 59 1013.8
20260508002321 60 317 0.0 0.0 0.00 0.00 0.00 57 1013.8
20260508001817 60 320 1.0 1.0 0.00 0.00 0.00 54 1013.6
20260508001313 60 326 2.0 2.0 0.00 0.00 0.00 53 1013.6
20260508000809 60 304 1.0 2.0 0.00 0.00 0.00 54 1013.6
20260508000306 60 266 3.0 3.0 0.00 0.00 0.00 54 1013.4
20260507235803 61 292 0.0 0.0 0.00 0.00 0.00 53 1013.6
20260507235300 61 3 2.0 3.0 0.00 0.00 0.00 52 1013.4
20260507234757 61 328 4.0 6.0 0.00 0.00 0.00 53 1013.4
20260507234253 61 289 6.0 7.0 0.00 0.00 0.00 52 1013.3
20260507233750 62 292 2.0 3.0 0.00 0.00 0.00 55 1013.0
20260507233248 63 328 2.0 2.0 0.00 0.00 0.00 52 1013.4
20260507232745 63 191 1.0 2.0 0.00 0.00 0.00 52 1013.0
20260507232242 64 338 1.0 2.0 0.00 0.00 0.00 52 1012.9
20260507231738 63 294 0.0 1.0 0.00 0.00 0.00 52 1012.9
20260507231235 63 331 4.0 5.0 0.00 0.00 0.00 51 1012.9
20260507230732 64 306 2.0 3.0 0.00 0.00 0.00 51 1012.7
20260507230230 64 152 2.0 3.0 0.00 0.00 0.00 52 1012.6
20260507225729 64 309 1.0 1.0 0.00 0.00 0.00 50 1012.5
20260507225226 64 281 5.0 5.0 0.00 0.00 0.00 50 1012.6
20260507224721 64 275 2.0 3.0 0.00 0.00 0.00 51 1012.5
20260507224218 65 270 3.0 5.0 0.00 0.00 0.00 50 1012.6
20260507223714 65 300 0.0 1.0 0.00 0.00 0.00 50 1012.5
20260507223211 64 306 2.0 2.0 0.00 0.00 0.00 51 1012.7
20260507222708 64 274 5.0 6.0 0.00 0.00 0.00 51 1012.6
20260507222204 64 307 7.0 10.0 0.00 0.00 0.00 50 1012.2
20260507221701 65 285 6.0 7.0 0.00 0.00 0.00 51 1012.1
20260507221157 64 293 4.0 6.0 0.00 0.00 0.00 52 1012.2
20260507220654 65 337 4.0 5.0 0.00 0.00 0.00 50 1012.3
20260507220153 66 255 7.0 9.0 0.00 0.00 0.00 51 1012.2
20260507215648 66 300 1.0 1.0 0.00 0.00 0.00 51 1012.1
20260507215146 65 282 6.0 10.0 0.00 0.00 0.00 51 1012.0
20260507214643 66 357 4.0 5.0 0.00 0.00 0.00 52 1012.0
20260507214139 67 303 3.0 5.0 0.00 0.00 0.00 52 1012.0
20260507213635 67 296 1.0 2.0 0.00 0.00 0.00 54 1011.8
20260507213133 66 265 2.0 3.0 0.00 0.00 0.00 53 1012.1
20260507212629 66 291 5.0 8.0 0.00 0.00 0.00 53 1011.7
20260507212126 66 269 3.0 5.0 0.00 0.00 0.00 53 1011.9
20260507211623 65 301 5.0 7.0 0.00 0.00 0.00 55 1011.9
20260507211118 64 349 8.0 10.0 0.00 0.00 0.00 57 1012.0
20260507210616 64 1 4.0 7.0 0.00 0.00 0.00 59 1011.9
20260507210112 63 308 3.0 5.0 0.00 0.00 0.00 61 1011.8
20260507205609 63 314 2.0 2.0 0.00 0.00 0.00 67 1011.6
20260507205105 63 223 3.0 5.0 0.00 0.00 0.00 69 1011.4
20260507204602 62 283 1.0 1.0 0.00 0.00 0.00 69 1011.6
20260507204059 62 335 2.0 3.0 0.00 0.00 0.00 70 1011.6
20260507203557 61 291 3.0 3.0 0.00 0.00 0.00 70 1011.7
20260507203054 62 246 3.0 5.0 0.00 0.00 0.00 70 1011.7
20260507202550 61 305 1.0 2.0 0.00 0.00 0.00 71 1011.6
20260507202046 61 106 3.0 3.0 0.00 0.00 0.00 71 1011.8
20260507201542 61 295 2.0 2.0 0.00 0.00 0.00 71 1011.8
20260507201039 62 298 3.0 3.0 0.00 0.00 0.00 70 1011.5
20260507200534 62 249 4.0 5.0 0.00 0.00 0.00 70 1011.8
20260507200030 62 180 5.0 7.0 0.00 0.00 0.00 69 1012.1
20260507195528 63 153 3.0 3.0 0.00 0.00 0.00 68 1012.0
20260507195025 62 231 1.0 1.0 0.00 0.00 0.00 69 1012.1
20260507194521 61 4 3.0 3.0 0.00 0.00 0.00 69 1012.2
20260507194018 62 211 3.0 3.0 0.00 0.00 0.00 69 1012.5
20260507193515 61 315 2.0 2.0 0.00 0.00 0.00 70 1012.5
20260507193012 61 331 3.0 3.0 0.00 0.00 0.00 70 1012.7
20260507192508 60 225 3.0 3.0 0.00 0.00 0.00 69 1012.7
20260507192005 60 312 4.0 5.0 0.00 0.00 0.00 70 1012.8
20260507191500 60 291 1.0 1.0 0.00 0.00 0.00 71 1012.9
20260507190957 60 359 5.0 6.0 0.00 0.00 0.00 71 1012.7
20260507190455 60 299 1.0 1.0 0.00 0.00 0.00 71 1012.6
20260507185954 59 168 4.0 6.0 0.00 0.00 0.00 73 1013.0
20260507185450 59 284 1.0 1.0 0.00 0.00 0.00 72 1013.0
20260507184947 59 343 4.0 6.0 0.00 0.00 0.00 73 1013.3
20260507184445 60 249 3.0 5.0 0.00 0.00 0.00 73 1013.3
20260507183943 59 290 1.0 1.0 0.00 0.00 0.00 73 1013.3
20260507183439 59 230 3.0 3.0 0.00 0.00 0.00 74 1013.4
20260507182936 59 297 0.0 0.0 0.00 0.00 0.00 77 1013.4
20260507182432 58 292 1.0 1.0 0.00 0.00 0.00 78 1013.5
20260507181928 58 309 2.0 2.0 0.00 0.00 0.00 79 1013.5
20260507181425 58 295 3.0 5.0 0.00 0.00 0.00 79 1013.3
20260507180922 58 9 4.0 5.0 0.00 0.00 0.00 77 1013.5
20260507180418 58 270 2.0 3.0 0.00 0.00 0.00 77 1013.3
20260507175914 58 287 1.0 2.0 0.00 0.00 0.00 77 1013.0
20260507175411 58 307 0.0 1.0 0.00 0.00 0.00 77 1013.5
20260507174909 58 299 0.0 1.0 0.00 0.00 0.00 77 1013.4
20260507174406 58 282 3.0 3.0 0.00 0.00 0.00 77 1013.3
20260507173904 59 209 1.0 2.0 0.00 0.00 0.00 77 1013.4
20260507173400 59 297 2.0 2.0 0.00 0.00 0.00 78 1013.2
20260507172857 58 313 3.0 3.0 0.00 0.00 0.00 78 1013.4
20260507172354 58 305 2.0 2.0 0.00 0.00 0.00 79 1013.6
20260507171850 58 313 3.0 3.0 0.00 0.00 0.00 78 1013.5
20260507171346 58 355 1.0 2.0 0.00 0.00 0.00 78 1013.5
20260507170844 58 20 3.0 3.0 0.00 0.00 0.00 78 1013.6
20260507170340 58 289 2.0 3.0 0.00 0.00 0.00 79 1013.3
20260507165836 58 295 0.0 1.0 0.00 0.00 0.00 79 1013.3
20260507165332 58 298 2.0 2.0 0.00 0.00 0.00 79 1013.4
20260507164828 58 344 3.0 5.0 0.00 0.00 0.00 79 1013.6
20260507164325 58 297 1.0 2.0 0.00 0.00 0.00 79 1013.5
20260507163822 58 297 3.0 3.0 0.00 0.00 0.00 79 1013.7
20260507163320 58 325 1.0 2.0 0.00 0.00 0.00 79 1013.5
20260507162816 58 50 1.0 2.0 0.00 0.00 0.00 79 1013.4
20260507162312 58 282 4.0 5.0 0.00 0.00 0.00 78 1013.7
20260507161809 59 293 3.0 3.0 0.00 0.00 0.00 78 1013.4
20260507161306 59 304 3.0 3.0 0.00 0.00 0.00 79 1013.4
20260507160802 59 250 3.0 3.0 0.00 0.00 0.00 79 1013.4
20260507160258 59 357 2.0 2.0 0.00 0.00 0.00 79 1013.4
20260507155754 59 286 2.0 3.0 0.00 0.00 0.00 79 1013.6
20260507155250 59 309 1.0 1.0 0.00 0.00 0.00 79 1013.6
20260507154747 59 312 1.0 1.0 0.00 0.00 0.00 79 1013.8
20260507154245 59 298 1.0 1.0 0.00 0.00 0.00 80 1013.9
20260507153741 59 304 1.0 2.0 0.00 0.00 0.00 80 1013.7
20260507153237 59 298 1.0 2.0 0.00 0.00 0.00 80 1014.2
20260507152734 59 311 1.0 2.0 0.00 0.00 0.00 79 1013.9
20260507152230 59 296 3.0 3.0 0.00 0.00 0.00 79 1014.0
20260507151726 59 294 1.0 1.0 0.00 0.00 0.00 79 1013.9
20260507151223 59 302 0.0 0.0 0.00 0.00 0.00 79 1013.7
20260507150720 59 330 1.0 1.0 0.00 0.00 0.00 80 1013.6
20260507150217 59 347 0.0 1.0 0.00 0.00 0.00 81 1013.6
20260507145712 59 285 3.0 3.0 0.00 0.00 0.00 81 1013.6
20260507145209 59 296 0.0 1.0 0.00 0.00 0.00 81 1013.6
20260507144706 60 301 1.0 2.0 0.00 0.00 0.00 81 1013.4
20260507144204 59 303 1.0 1.0 0.00 0.00 0.00 80 1013.7
20260507143701 59 319 0.0 1.0 0.00 0.00 0.00 81 1013.6
20260507143158 59 303 3.0 3.0 0.00 0.00 0.00 81 1013.6
20260507142653 59 282 1.0 2.0 0.00 0.00 0.00 80 1013.4
20260507142150 59 308 2.0 2.0 0.00 0.00 0.00 80 1013.8
20260507141646 60 291 2.0 2.0 0.00 0.00 0.00 80 1013.6
20260507141143 60 319 2.0 3.0 0.00 0.00 0.00 79 1013.6
20260507140640 60 293 2.0 3.0 0.00 0.00 0.00 79 1013.7
20260507140137 60 295 2.0 2.0 0.00 0.00 0.00 79 1013.3
20260507135634 60 297 2.0 2.0 0.00 0.00 0.00 80 1013.3
20260507135132 60 299 0.0 1.0 0.00 0.00 0.00 79 1013.4
20260507134628 60 294 2.0 2.0 0.00 0.00 0.00 80 1013.6
20260507134124 60 313 3.0 3.0 0.00 0.00 0.00 80 1014.0
20260507133620 60 297 2.0 2.0 0.00 0.00 0.00 79 1014.0
20260507133118 60 301 0.0 2.0 0.00 0.00 0.00 80 1013.8
20260507132615 60 314 3.0 3.0 0.00 0.00 0.00 79 1013.9
20260507132111 60 354 1.0 2.0 0.00 0.00 0.00 80 1013.8
20260507131608 61 300 2.0 2.0 0.00 0.00 0.00 80 1014.0
20260507131106 60 8 1.0 1.0 0.00 0.00 0.00 80 1014.2
20260507130602 60 281 4.0 5.0 0.00 0.00 0.00 79 1013.8
20260507130100 60 274 1.0 1.0 0.00 0.00 0.00 79 1013.8
20260507125558 60 300 1.0 1.0 0.00 0.00 0.00 79 1013.5
20260507125055 60 314 1.0 1.0 0.00 0.00 0.00 80 1013.7
20260507124552 60 291 1.0 1.0 0.00 0.00 0.00 80 1013.7
20260507124050 60 296 0.0 1.0 0.00 0.00 0.00 80 1014.0
20260507123547 60 286 2.0 2.0 0.00 0.00 0.00 80 1014.0
20260507123044 60 303 2.0 2.0 0.00 0.00 0.00 79 1014.0
20260507122539 60 298 1.0 2.0 0.00 0.00 0.00 80 1013.8
20260507122035 60 311 3.0 3.0 0.00 0.00 0.00 80 1013.9
20260507121531 60 327 2.0 3.0 0.00 0.00 0.00 80 1013.7
20260507121027 60 303 1.0 2.0 0.00 0.00 0.00 80 1013.7
20260507120523 60 310 2.0 3.0 0.00 0.00 0.00 80 1013.8
20260507120021 60 325 3.0 3.0 0.00 0.00 0.00 79 1013.9
20260507115517 60 350 5.0 6.0 0.00 0.00 0.00 80 1013.5
20260507115013 60 306 2.0 2.0 0.00 0.00 0.00 81 1013.7
20260507114509 60 306 0.0 1.0 0.00 0.00 0.00 81 1013.8
20260507114006 60 285 1.0 1.0 0.00 0.00 0.00 81 1013.7
20260507113503 60 316 1.0 1.0 0.00 0.00 0.00 81 1013.5
20260507113000 60 341 1.0 2.0 0.00 0.00 0.00 81 1013.6
20260507112458 60 300 3.0 5.0 0.00 0.00 0.00 80 1013.4
20260507111954 60 311 2.0 3.0 0.00 0.00 0.00 82 1013.2
20260507111452 59 309 1.0 1.0 0.00 0.00 0.00 84 1013.4
20260507110948 59 305 0.0 1.0 0.00 0.00 0.00 85 1013.2
20260507110444 59 305 0.0 0.0 0.00 0.00 0.00 85 1012.9
20260507105941 59 343 0.0 1.0 0.00 0.00 0.00 85 1013.0
20260507105438 59 305 0.0 0.0 0.00 0.00 0.00 84 1013.0
20260507104935 59 301 0.0 0.0 0.00 0.00 0.00 84 1013.0
20260507104432 60 300 1.0 1.0 0.00 0.00 0.00 84 1012.8
20260507103927 60 287 1.0 1.0 0.00 0.00 0.00 83 1013.0
20260507103424 60 301 1.0 2.0 0.00 0.00 0.00 83 1013.2
20260507102920 60 310 0.0 1.0 0.00 0.00 0.00 82 1013.0
20260507102417 60 296 1.0 2.0 0.00 0.00 0.00 82 1012.9
20260507101914 60 304 0.0 1.0 0.00 0.00 0.00 82 1012.8
20260507101409 60 294 3.0 3.0 0.00 0.00 0.00 83 1012.8
20260507100905 60 17 1.0 2.0 0.00 0.00 0.00 86 1012.7
20260507100403 60 15 3.0 3.0 0.00 0.00 0.00 86 1012.7
20260507095901 60 309 2.0 2.0 0.00 0.00 0.00 86 1012.9
20260507095358 60 301 1.0 2.0 0.00 0.00 0.00 86 1012.6
20260507094855 60 285 2.0 2.0 0.00 0.00 0.00 85 1012.9
20260507094351 60 301 3.0 5.0 0.00 0.00 0.00 85 1013.0
20260507093848 60 302 1.0 1.0 0.00 0.00 0.00 86 1012.8
20260507093346 60 305 1.0 1.0 0.00 0.00 0.00 86 1013.0
20260507092844 60 312 1.0 1.0 0.00 0.00 0.00 86 1012.9
20260507092340 60 289 1.0 2.0 0.00 0.00 0.00 87 1012.8
20260507091837 60 301 2.0 2.0 0.00 0.00 0.00 86 1013.2
20260507091333 60 298 1.0 1.0 0.00 0.00 0.00 86 1012.9
20260507090829 60 299 1.0 1.0 0.00 0.00 0.00 87 1012.7
20260507090326 60 318 4.0 6.0 0.00 0.00 0.00 88 1012.5
20260507085823 60 284 2.0 2.0 0.00 0.00 0.00 88 1012.1
20260507085320 60 349 0.0 1.0 0.00 0.00 0.00 89 1012.3
20260507084817 60 296 2.0 2.0 0.00 0.00 0.00 91 1012.5
20260507084313 61 293 1.0 1.0 0.00 0.00 0.00 94 1012.4
20260507083811 61 301 0.0 0.0 0.00 0.00 0.00 94 1012.6
20260507083307 61 304 0.0 0.0 0.00 0.00 0.00 94 1012.7
20260507082803 61 300 1.0 1.0 0.00 0.00 0.00 94 1012.7
20260507082259 61 311 2.0 2.0 0.00 0.00 0.00 93 1012.7
20260507081756 62 300 0.0 0.0 0.00 0.00 0.00 93 1012.5
20260507081252 62 303 0.0 0.0 0.00 0.00 0.00 93 1012.5
20260507080749 62 301 0.0 0.0 0.00 0.00 0.00 92 1012.6
20260507080245 62 299 0.0 0.0 0.00 0.00 0.00 92 1012.6
20260507075740 62 292 1.0 1.0 0.00 0.00 0.00 91 1013.0
20260507075237 62 292 0.0 0.0 0.00 0.00 0.00 90 1012.3
20260507074733 62 268 1.0 1.0 0.00 0.00 0.00 89 1012.5
20260507074232 62 287 1.0 1.0 0.00 0.00 0.00 89 1012.5
20260507073728 62 312 0.0 0.0 0.00 0.00 0.00 88 1012.8
20260507073224 62 318 1.0 1.0 0.00 0.00 0.00 88 1012.6
20260507072723 63 307 0.0 1.0 0.00 0.00 0.00 87 1012.5
20260507072220 62 273 4.0 5.0 0.00 0.00 0.00 88 1012.8
20260507071717 62 302 1.0 2.0 0.00 0.00 0.00 92 1012.3
20260507071213 62 309 0.0 1.0 0.00 0.00 0.00 91 1012.6
20260507070710 63 314 1.0 1.0 0.00 0.00 0.00 90 1012.3
20260507070207 63 305 1.0 1.0 0.00 0.00 0.00 89 1012.3
20260507065703 63 339 1.0 1.0 0.00 0.00 0.00 90 1012.1
20260507065201 63 300 1.0 1.0 0.00 0.00 0.00 91 1012.2
20260507064658 63 296 0.0 1.0 0.00 0.00 0.00 93 1012.3
20260507064156 62 330 2.0 2.0 0.00 0.00 0.00 95 1012.2
20260507063654 63 306 1.0 2.0 0.00 0.00 0.00 96 1012.7
20260507063150 63 300 1.0 1.0 0.00 0.00 0.00 96 1012.8
20260507062647 63 301 0.0 1.0 0.00 0.00 0.00 96 1012.6
20260507062145 63 296 2.0 2.0 0.00 0.00 0.00 96 1012.6
20260507061642 64 308 2.0 2.0 0.00 0.00 0.00 95 1012.4
20260507061140 64 295 2.0 2.0 0.00 0.00 0.00 94 1012.1
20260507060638 64 305 0.0 1.0 0.00 0.00 0.00 94 1012.1
20260507060134 64 313 0.0 0.0 0.00 0.00 0.00 94 1012.2
20260507055630 64 319 1.0 1.0 0.00 0.00 0.00 94 1012.3
20260507055126 64 298 0.0 1.0 0.00 0.00 0.00 93 1012.5
20260507054622 64 307 1.0 1.0 0.00 0.00 0.00 92 1012.9
20260507054119 64 316 2.0 2.0 0.00 0.00 0.00 93 1012.6